Theta_e
315 315 315 316 317 317 316 314 310 305 306 307 308 309 311 305 304 303 303 300 306 309 309 309 308 308 309 309 310 311 311 312 313 314 315 314 314 315
317 316 316 317 317 317 317 315 314 311 307 310 308 308 306 301 299 301 301 297 301 304 304 304 305 305 306 306 307 308 308 309 311 312 313 312 312 314
318 317 317 317 317 317 317 317 315 314 310 312 313 309 303 301 297 298 298 298 297 299 301 302 302 302 302 302 303 303 303 305 307 308 310 309 311 311
318 318 317 318 317 317 317 316 315 316 313 310 313 303 305 301 300 297 295 296 296 297 299 300 300 300 299 299 299 300 300 301 302 303 305 306 306 306
318 318 318 318 316 317 317 316 316 315 315 313 312 299 297 295 293 293 293 293 293 295 298 298 298 298 298 297 298 298 297 298 300 301 302 302 303 303
319 319 318 318 317 317 317 316 316 314 314 313 311 295 293 289 289 288 287 287 288 290 292 292 293 293 294 295 295 294 294 296 298 299 299 300 299 299
319 319 319 315 307 314 317 316 315 314 311 309 294 289 288 286 291 289 292 287 287 287 286 286 287 286 286 290 289 291 293 294 296 296 296 296 296 296
318 318 318 302 304 302 304 307 314 314 311 308 306 300 292 291 288 290 288 287 287 285 286 285 282 285 284 282 288 292 292 293 293 293 293 293 293 293
318 318 317 316 305 314 304 303 304 305 310 310 307 300 297 293 291 288 287 287 289 284 286 285 284 284 281 284 291 292 292 292 292 291 291 290 290 289
320 318 317 316 314 311 313 308 309 310 309 309 310 306 306 298 297 296 292 287 285 284 285 282 282 282 279 279 291 292 291 290 289 289 289 289 288 288
318 319 317 316 308 300 310 304 303 304 299 301 303 303 300 297 294 290 287 288 283 283 283 284 280 278 277 276 281 290 290 288 288 288 288 288 287 286
309 309 297 311 303 299 308 303 297 297 290 289 290 293 294 293 293 295 290 289 283 282 283 283 279 278 276 276 276 276 279 286 286 287 287 286 287 280
305 304 301 298 299 299 302 304 301 297 293 291 290 288 288 288 290 288 291 292 285 280 283 282 278 276 273 274 275 275 276 278 277 280 285 285 285 283
302 302 301 296 297 298 299 305 300 293 291 289 289 288 287 287 288 287 287 286 286 285 285 282 279 278 275 273 274 275 275 275 276 277 277 282 283 284
299 301 297 295 296 297 297 298 291 291 289 288 289 288 289 289 286 285 285 285 284 285 286 281 282 280 278 272 273 274 276 275 276 276 276 277 277 277
293 294 294 295 295 296 291 292 293 291 290 291 290 288 287 285 285 285 284 283 282 281 284 284 283 282 278 277 274 272 274 274 275 275 275 275 276 277
287 287 288 288 289 288 289 289 289 288 289 289 287 285 285 285 284 285 284 283 282 280 280 281 282 282 281 279 277 276 276 276 276 275 273 272 273 274
287 288 289 289 289 288 287 286 287 287 289 288 287 286 285 285 283 283 283 283 282 281 280 280 279 277 277 277 280 278 277 276 273 273 270 268 268 271
288 288 288 288 288 287 288 287 287 287 287 287 286 286 285 285 283 282 282 282 281 280 280 279 279 278 275 273 275 282 277 273 272 268 269 266 267 269
287 287 287 287 287 287 288 287 286 286 286 286 286 286 285 284 283 282 281 281 279 278 277 277 278 278 276 274 271 273 278 272 269 267 267 265 268 274
286 287 286 286 286 286 286 286 286 285 286 286 286 285 285 284 283 282 281 281 279 278 275 276 278 276 271 272 270 269 271 275 271 268 266 264 262 262
277 285 286 285 285 285 286 286 285 285 285 285 285 285 285 285 284 282 281 279 278 277 277 272 270 271 270 271 269 268 267 268 269 273 274 271 263 259
269 271 275 285 285 285 285 285 285 285 285 286 285 285 285 283 284 282 281 279 277 274 271 268 268 269 268 269 268 266 265 265 265 265 265 272 273 274
Wind_Speed
17 18 15 13 12 12 11 11 11 10 10 5 5 7 6 5 7 6 6 9 13 13 12 11 11 11 13 14 15 15 15 17 17 16 17 14 14 14
14 17 17 14 15 12 12 11 11 13 14 5 6 5 6 3 5 6 6 9 11 11 10 10 10 12 13 14 13 14 15 15 17 15 16 13 15 16
18 18 20 18 14 13 12 12 13 12 15 12 6 6 6 5 4 4 5 6 5 10 11 12 12 11 11 10 12 13 13 13 13 12 10 9 10 9
21 20 20 14 19 17 13 16 14 13 13 18 10 5 6 5 5 6 5 4 6 9 11 11 10 11 9 9 11 10 9 11 10 8 7 5 5 2
21 21 21 19 19 15 17 14 13 12 13 12 10 2 2 3 3 2 4 3 3 8 11 10 10 9 8 9 10 8 2 4 8 7 5 5 5 5
20 20 20 21 21 20 17 18 15 12 11 10 10 4 3 1 2 4 2 2 3 4 5 5 6 7 6 9 10 6 6 6 3 1 1 1 0 3
20 20 21 21 23 22 14 16 16 13 9 10 4 3 4 3 7 4 5 3 3 4 3 3 3 3 3 6 4 5 5 5 3 2 4 3 2 1
20 20 20 17 20 22 24 22 19 17 18 14 11 10 7 5 5 6 5 4 3 3 5 3 3 3 2 3 6 7 7 6 5 4 3 2 2 4
20 19 17 14 16 19 22 24 22 23 23 16 16 14 10 12 10 7 5 5 5 5 5 4 3 3 2 3 8 9 9 9 9 8 7 7 7 5
21 20 19 19 17 18 18 18 21 18 20 14 18 16 16 15 17 14 14 7 4 3 1 4 3 3 1 2 11 11 11 11 9 7 6 6 5 6
20 19 18 19 18 22 19 16 16 16 9 18 18 16 17 20 17 11 8 9 3 3 4 4 3 3 2 1 1 11 14 9 8 8 6 6 6 7
14 16 18 20 18 25 21 16 16 14 10 6 5 9 16 18 25 16 14 12 5 3 6 6 4 5 2 1 1 1 3 8 6 7 8 6 7 3
12 11 10 17 17 25 28 17 19 12 15 12 9 7 7 10 10 5 10 12 8 3 8 6 4 4 3 3 1 2 3 3 2 4 7 5 4 5
15 10 10 17 19 25 24 26 19 15 9 9 9 9 10 9 8 8 7 5 4 5 15 7 5 5 5 3 4 2 1 2 3 3 2 2 2 3
14 14 13 18 23 23 28 24 17 11 11 10 11 10 10 10 10 9 7 8 7 8 11 5 6 5 4 3 5 4 5 3 3 3 3 3 3 2
14 11 10 13 17 16 8 10 10 11 12 13 12 9 9 9 9 9 8 8 5 3 5 6 8 8 3 3 4 3 2 4 2 2 2 1 2 2
6 4 5 5 7 6 7 9 8 8 10 10 9 11 9 10 8 10 9 9 6 8 7 4 5 5 4 6 3 4 4 3 2 3 2 2 2 2
7 9 9 9 9 9 9 9 9 12 10 10 11 11 12 13 11 10 10 10 10 10 9 7 7 5 2 1 3 5 4 4 3 3 2 2 2 2
10 9 8 8 8 8 10 11 11 11 10 10 10 11 11 11 15 12 12 12 10 10 10 9 11 10 9 7 2 10 7 4 4 2 2 3 3 2
7 8 7 6 7 8 8 9 8 8 9 10 10 11 12 13 13 13 13 13 12 9 9 9 11 11 10 9 6 2 8 6 4 3 2 1 3 10
5 8 4 4 6 5 5 6 7 8 9 10 10 11 12 13 14 13 14 17 15 11 12 11 8 11 7 6 4 3 2 7 7 4 3 3 2 1
13 9 4 4 5 5 6 7 8 9 9 10 11 11 11 12 13 14 14 14 13 11 9 8 8 8 3 3 4 5 3 2 0 5 11 8 5 4
12 12 14 6 3 5 6 7 8 9 10 10 10 10 11 11 10 11 12 12 13 12 13 9 5 3 3 3 6 4 5 3 2 1 2 8 8 9
Wind_Direction
222 224 222 227 220 222 222 219 222 251 248 221 234 211 213 197 206 191 201 197 207 200 188 187 204 221 235 244 252 255 259 262 261 264 267 267 272 252
223 223 224 225 226 219 219 220 222 233 254 189 210 205 206 196 196 183 178 162 182 168 180 188 201 220 237 248 257 264 266 269 273 269 269 260 272 263
225 225 227 223 225 222 218 221 224 223 240 251 231 193 189 172 186 164 161 154 172 178 174 200 210 224 237 253 265 269 276 279 279 291 291 282 287 277
224 225 228 222 225 223 221 219 220 222 230 242 234 194 191 192 174 167 174 167 166 195 190 217 215 221 231 249 259 264 274 271 269 268 268 281 274 275
227 224 227 222 223 218 220 219 217 219 222 231 234 140 150 154 133 138 164 170 163 184 194 212 221 223 222 245 252 247 251 258 247 249 227 241 263 276
227 226 227 224 223 221 220 219 217 219 223 223 224 168 157 182 117 147 167 189 170 171 202 197 208 216 229 236 238 240 251 253 267 170 137 128 182 298
231 230 229 227 225 223 217 214 211 211 210 218 194 157 164 169 191 172 183 139 209 151 148 192 183 182 192 224 218 220 212 212 199 134 95 94 83 359
236 232 229 221 224 218 217 216 215 206 210 214 212 212 191 181 154 167 148 148 201 189 157 194 158 160 180 198 212 184 172 165 155 152 129 122 97 82
234 234 230 224 215 221 222 220 216 210 211 199 212 205 191 187 159 163 170 159 180 169 137 163 178 164 183 205 193 178 167 146 128 120 115 107 91 68
238 235 232 228 215 211 219 219 224 221 217 207 212 209 207 186 185 183 179 135 72 112 161 154 148 167 177 231 187 168 145 129 115 115 120 108 96 86
244 240 234 229 216 197 210 214 215 223 223 220 216 204 186 172 160 130 149 151 137 180 190 122 163 128 141 223 196 154 144 125 119 117 113 116 117 111
246 245 226 230 207 193 207 209 211 213 181 158 152 160 161 169 171 176 161 171 133 149 186 152 145 142 160 247 173 50 111 125 132 133 136 140 145 134
244 237 233 222 213 195 205 204 211 189 196 184 160 150 150 158 168 160 172 166 154 150 171 141 150 142 111 146 188 193 149 161 135 143 139 148 179 164
258 251 229 212 214 206 206 212 204 167 163 169 167 171 163 169 168 155 141 111 96 134 162 152 140 157 142 132 173 167 204 154 140 153 153 189 270 226
268 265 229 206 213 217 214 208 172 166 166 174 181 181 180 161 141 124 111 102 90 128 156 156 138 135 133 138 158 163 136 198 175 149 161 172 193 213
271 266 233 225 219 220 200 181 183 178 178 187 183 167 143 155 155 152 147 146 129 126 147 141 136 143 122 122 126 138 159 164 142 150 147 162 224 207
257 245 220 208 209 193 187 183 177 173 180 173 163 160 163 162 157 162 152 156 159 157 162 141 117 110 121 139 155 161 151 147 163 149 119 187 233 210
243 251 243 224 211 197 191 186 188 187 185 173 170 168 165 167 163 166 161 171 172 167 166 160 145 130 123 269 227 160 136 155 160 154 137 156 268 249
244 256 251 234 220 202 199 195 194 192 173 173 172 171 168 170 164 170 171 172 173 169 168 163 169 170 178 178 133 194 167 146 146 149 168 176 210 236
246 255 261 241 228 216 207 195 187 176 177 174 175 176 173 171 174 178 178 176 169 162 161 169 178 182 188 174 149 143 158 137 148 162 197 299 270 280
250 257 254 227 222 213 201 190 190 185 181 180 183 180 179 177 183 181 176 177 168 168 170 178 174 119 108 102 94 129 137 148 159 157 164 159 200 305
346 309 259 229 219 211 202 194 188 187 189 190 191 188 187 187 186 182 176 169 167 164 157 120 125 128 111 118 130 133 148 141 101 231 203 197 162 203
345 342 338 300 239 229 219 210 208 202 199 198 196 188 180 188 182 180 172 165 156 145 143 133 127 105 96 123 134 133 148 157 163 189 291 230 235 255